Weather History for KGWR - March, 2012

Change the Weather History Date:

Saturday, March 17, 2012

  Actual Average (KP67) Record (KP67)
Temperature  
Mean Temperature 63 °F -  
Max Temperature 75 °F 29 °F 37 °F (1998)
Min Temperature 51 °F 15 °F 7 °F (1997)
Degree Days  
Heating Degree Days 2    
Growing Degree Days 13 (Base 50)    
Moisture  
Dew Point 56 °F    
Average Humidity 85    
Maximum Humidity 100    
Minimum Humidity 57    
Precipitation  
Precipitation 0.00 in - - ()
Sea Level Pressure  
Sea Level Pressure 29.61 in    
Wind  
Wind Speed 12 mph (South)    
Max Wind Speed 16 mph    
Max Gust Speed 21 mph    
Visibility 8 miles    
Events      
Averages and records for this station are not official NWS values.
T = Trace of Precipitation, MM = Missing Value Source: NWS Daily Summary

Daily Weather History Graph

Daily Weather History Graph

Search for Another Location

Airport or City:

Trip Planner

Search our weather history database for the weather conditions in past years. The results will help you decide how hot, cold, wet, or windy it might be!

Date:

Astronomy

Mar. 17, 2012 Rise Set
Actual Time 7:38 AM CDT 7:39 PM CDT
Civil Twilight 7:08 AM CDT 8:09 PM CDT
Nautical Twilight 6:33 AM CDT 8:44 PM CDT
Astronomical Twilight 5:57 AM CDT 9:20 PM CDT
Moon 4:56 AM CDT (3/17) 2:51 PM CDT (3/17)
Length of Visible Light 13h 01m
Length of Day
12h 01m
Waning Crescent, 23% of the Moon is Illuminated
Mar 17
Waning Crescent
Mar 22
New
Mar 30
First Quarter
Apr 6
Full
Apr 13
Last Quarter

Hourly Weather History & Observations

Time (CDT) Temp. Dew Point Humidity Pressure Visibility Wind Dir Wind Speed Gust Speed Precip Events Conditions
12:15 AM 57.2 °F 44.6 °F 63% 29.59 in 10.0 mi South 12.7 mph - 0.00 in   Clear
12:35 AM 57.2 °F 44.6 °F 63% 29.59 in 10.0 mi South 12.7 mph - 0.00 in   Clear
12:55 AM 55.4 °F 44.6 °F 67% 29.59 in 10.0 mi South 12.7 mph - 0.00 in   Clear
1:15 AM 57.2 °F 44.6 °F 63% 29.59 in 10.0 mi SSW 15.0 mph - 0.00 in   Clear
1:35 AM 57.2 °F 46.4 °F 67% 29.59 in 10.0 mi SSW 10.4 mph - 0.00 in   Clear
1:55 AM 55.4 °F 46.4 °F 72% 29.59 in 10.0 mi SSW 12.7 mph - 0.00 in   Clear
2:15 AM 60.8 °F 50.0 °F 68% 29.59 in 10.0 mi SSW 16.1 mph - 0.00 in   Clear
2:35 AM 57.2 °F 50.0 °F 77% 29.60 in 10.0 mi SSW 12.7 mph - 0.00 in   Clear
2:55 AM 55.4 °F 51.8 °F 88% 29.60 in 10.0 mi SSW 11.5 mph - 0.00 in   Clear
3:15 AM 55.4 °F 51.8 °F 88% 29.59 in 10.0 mi SSW 13.8 mph - 0.00 in   Clear
3:35 AM 55.4 °F 53.6 °F 94% 29.59 in 10.0 mi South 12.7 mph - 0.00 in   Clear
3:55 AM 55.4 °F 53.6 °F 94% 29.59 in 10.0 mi SSW 11.5 mph - 0.00 in   Clear
4:15 AM 55.4 °F 53.6 °F 94% 29.59 in 10.0 mi SSW 13.8 mph - 0.00 in   Clear
4:55 AM 53.6 °F 53.6 °F 100% 29.59 in 9.0 mi SSW 12.7 mph - 0.00 in   Clear
5:15 AM 51.8 °F 51.8 °F 100% 29.59 in 9.0 mi SSW 11.5 mph - 0.00 in   Clear
5:55 AM 55.4 °F 55.4 °F 100% 29.59 in 8.0 mi SSW 15.0 mph - 0.00 in   Clear
6:15 AM 53.6 °F 53.6 °F 100% 29.59 in 8.0 mi SSW 12.7 mph - 0.00 in   Clear
6:35 AM 51.8 °F 51.8 °F 100% 29.61 in 7.0 mi SW 11.5 mph - 0.00 in   Clear
6:55 AM 53.6 °F 53.6 °F 100% 29.61 in 7.0 mi SW 11.5 mph - 0.00 in   Clear
7:15 AM 53.6 °F 53.6 °F 100% 29.62 in 6.0 mi SW 13.8 mph - 0.00 in   Clear
7:35 AM 53.6 °F 53.6 °F 100% 29.62 in 6.0 mi SW 11.5 mph - 0.00 in   Clear
7:55 AM 53.6 °F 53.6 °F 100% 29.62 in 5.0 mi WSW 12.7 mph - 0.00 in   Clear
8:15 AM 53.6 °F 53.6 °F 100% 29.62 in 4.0 mi SSW 15.0 mph - 0.00 in   Clear
8:35 AM 55.4 °F 55.4 °F 100% 29.62 in 5.0 mi SW 12.7 mph - 0.00 in   Clear
8:55 AM 55.4 °F 55.4 °F 100% 29.63 in 4.0 mi West 12.7 mph - 0.00 in   Clear
9:15 AM 53.6 °F 53.6 °F 100% 29.63 in 5.0 mi West 9.2 mph - 0.00 in   Partly Cloudy
9:55 AM 57.2 °F 57.2 °F 100% 29.65 in 5.0 mi West 5.8 mph - 0.00 in   Scattered Clouds
10:15 AM 57.2 °F 57.2 °F 100% 29.65 in 5.0 mi NNW 4.6 mph - 0.00 in   Overcast
10:35 AM 57.2 °F 57.2 °F 100% 29.66 in 5.0 mi Calm Calm - 0.00 in   Overcast
10:55 AM 57.2 °F 57.2 °F 100% 29.65 in 5.0 mi Calm Calm - 0.00 in   Overcast
11:15 AM 57.2 °F 57.2 °F 100% 29.65 in 6.0 mi SSE 4.6 mph - 0.00 in   Overcast
11:35 AM 60.8 °F 60.8 °F 100% 29.65 in 6.0 mi East 4.6 mph - 0.00 in   Overcast
11:55 AM 60.8 °F 60.8 °F 100% 29.64 in 6.0 mi SE 8.1 mph - 0.00 in   Overcast
12:15 PM 62.6 °F 60.8 °F 94% 29.64 in 7.0 mi SSE 9.2 mph - 0.00 in   Overcast
12:35 PM 62.6 °F 62.6 °F 100% 29.64 in 7.0 mi South 11.5 mph - 0.00 in   Overcast
12:55 PM 62.6 °F 62.6 °F 100% 29.64 in 9.0 mi SSE 8.1 mph - 0.00 in   Overcast
1:15 PM 64.4 °F 64.4 °F 100% 29.63 in 8.0 mi SSE 10.4 mph - 0.00 in   Overcast
1:35 PM 69.8 °F 64.4 °F 83% 29.62 in 9.0 mi South 13.8 mph - 0.00 in   Mostly Cloudy
1:55 PM 71.6 °F 64.4 °F 78% 29.62 in 10.0 mi SSW 15.0 mph - 0.00 in   Scattered Clouds
2:15 PM 71.6 °F 64.4 °F 78% 29.61 in 9.0 mi SSW 12.7 mph 16.1 mph 0.00 in   Partly Cloudy
2:35 PM 73.4 °F 62.6 °F 69% 29.61 in 10.0 mi South 13.8 mph - 0.00 in   Partly Cloudy
2:55 PM 73.4 °F 62.6 °F 69% 29.60 in 10.0 mi SSE 13.8 mph 17.3 mph 0.00 in   Partly Cloudy
3:15 PM 75.2 °F 62.6 °F 65% 29.60 in 10.0 mi SSE 16.1 mph - 0.00 in   Clear
3:35 PM 75.2 °F 62.6 °F 65% 29.59 in 10.0 mi SSE 15.0 mph 20.7 mph 0.00 in   Clear
3:55 PM 75.2 °F 62.6 °F 65% 29.59 in 10.0 mi SSE 16.1 mph - 0.00 in   Partly Cloudy
4:15 PM 75.2 °F 60.8 °F 61% 29.59 in 10.0 mi South 15.0 mph - 0.00 in   Partly Cloudy
4:35 PM 75.2 °F 60.8 °F 61% 29.59 in 10.0 mi South 16.1 mph 20.7 mph 0.00 in   Scattered Clouds
5:15 PM 75.2 °F 59.0 °F 57% 29.59 in 10.0 mi South 16.1 mph - 0.00 in   Partly Cloudy
5:35 PM 75.2 °F 59.0 °F 57% 29.59 in 10.0 mi South 13.8 mph - 0.00 in   Clear
5:55 PM 73.4 °F 57.2 °F 57% 29.58 in 10.0 mi SSE 12.7 mph - 0.00 in   Clear
6:15 PM 73.4 °F 59.0 °F 61% 29.58 in 10.0 mi SSE 12.7 mph - 0.00 in   Clear
6:35 PM 71.6 °F 59.0 °F 64% 29.58 in 10.0 mi SSE 11.5 mph - 0.00 in   Clear
6:55 PM 69.8 °F 59.0 °F 68% 29.58 in 10.0 mi SSE 10.4 mph - 0.00 in   Clear
7:15 PM 68.0 °F 59.0 °F 73% 29.58 in 10.0 mi SSE 10.4 mph - 0.00 in   Clear
7:35 PM 66.2 °F 59.0 °F 78% 29.59 in 10.0 mi SSE 9.2 mph - 0.00 in   Clear
8:15 PM 60.8 °F 59.0 °F 94% 29.59 in 10.0 mi SE 6.9 mph - 0.00 in   Clear
8:35 PM 57.2 °F 57.2 °F 100% 29.58 in 10.0 mi SE 6.9 mph - 0.00 in   Clear
8:55 PM 57.2 °F 57.2 °F 100% 29.59 in 10.0 mi SE 8.1 mph - 0.00 in   Clear
9:15 PM 55.4 °F 55.4 °F 100% 29.59 in 10.0 mi SE 8.1 mph - 0.00 in   Clear
9:35 PM 55.4 °F 55.4 °F 100% 29.59 in 10.0 mi SE 8.1 mph - 0.00 in   Clear
9:55 PM 55.4 °F 55.4 °F 100% 29.59 in 10.0 mi SE 6.9 mph - 0.00 in   Clear
10:15 PM 53.6 °F 53.6 °F 100% 29.60 in 8.0 mi SE 5.8 mph - 0.00 in   Clear
10:35 PM 53.6 °F 53.6 °F 100% 29.59 in 8.0 mi ESE 6.9 mph - 0.00 in   Clear
10:55 PM 51.8 °F 51.8 °F 100% 29.59 in 8.0 mi ESE 8.1 mph - 0.00 in   Clear
11:15 PM 51.8 °F 51.8 °F 100% 29.59 in 7.0 mi ESE 8.1 mph - 0.00 in   Clear
11:35 PM 51.8 °F 51.8 °F 100% 29.58 in 7.0 mi SE 6.9 mph - 0.00 in   Clear
11:55 PM 53.6 °F 53.6 °F 100% 29.58 in 7.0 mi SE 6.9 mph - 0.00 in   Clear